User: anonymous   Login
Location: Columbia
(38.9520°N, 92.3340°W)
Time: 13:47:44
(UTC-05:00)
Language:

Iridium 52 - Orbit

View from above orbital plane
View from above orbital plane
View from above satellite
View from above satellite

Ground track
Ground track

The orbit data is extracted from the following two-line orbital elements,

1 25169U 98010A   16121.59095117  .00000116  00000-0  34215-4 0  9996
2 25169  86.3978 162.8598 0002427  93.1700 266.9774 14.34219726952646
Epoch (UTC): 30 April 2016 14:10:58
Eccentricity: 0.0002427
inclination: 86.3978°
perigee height: 776 km
apogee height: 779 km
right ascension of ascending node: 162.8598°
argument of perigee: 93.1700°
revolutions per day: 14.34219726
mean anomaly at epoch: 266.9774°
orbit number at epoch: 95264

The dashed part of the orbit path shows where the satellite is in the earth's shadow,  

DLR